COSMOS 249 DEB, 3755

Orbit data source: Space-Track

COSMOS 249 DEB, 3755 is space debris in LEO originally from a launch on Sun, 20 Oct 1968 UTC launched from the Tyuratam Missile And Space Complex (TTMTR). Debris objects in space refer to the collection of defunct objects orbiting the Earth. Examples of debris include non-operational satellites, rocket bodies, and fragments generated from explosions, collisions, or faulty payload assembly.

Loading next visibility...
Identifier
3755, 1968-091AT
Orbit
LEO
Country
Flag of CISCIS
Related business
Manufacturer
Unknown
Mission
Spacecraft
Bus & Motor
Unknown
Mass
Unknown
Launch date (UTC)
1968-10-20 (58 years ago)
Launch vehicle
Unknown
Launch site
Tyuratam Missile And Space Complex (TTMTR)
Object type
Payload
Rocket body
Debris
Shape & HBR
Unknown shape, 0.1 m
Radar Cross Section
Small (<0.1 m²)

Expand to show TLE details & history
Last TLE update: 16 hours ago

TLE from 16 hours ago
0 COSMOS 249 DEB
1  3755U 68091AT  26133.24368258  .00000099  00000-0  21062-3 0  9999
2  3755  62.2429 229.4962 0779384 108.9767 259.7273 12.81588420638974
Epoch: 2026-05-13T05:50Z
TLE epoch observation values (Epoch: 2026-05-13T05:50:54.174Z)
Latitude
-0.00001°
Longitude
-89.23603°
Altitude
1,488.216 km
Speed
7.05 km/s
True Right ascension
15h 17m 59s
True Declination
0° 00' 00"
Sunlit
Object was in full shadow at epoch
Visualization orbit readout
Latitude
Unknown
Longitude
Unknown
Altitude
Unknown
Speed
Unknown
Apparent Right ascension
Unknown
Apparent Declination
Unknown
Sunlit
N/A
Visualization observer readout
Local Sidereal Time
06:07:30
Azimuth
Unknown
Elevation
Unknown
Doppler factor
Unknown
Orbital elements
Apogee altitude
1,935.167 km
Perigee altitude
733.01 km
Semi-major axis
7,712.226 km
Eccentricity
0.07794
Inclination
62.2429°
RAAN
229.4962°
Arg. of periapsis
108.9767°
True anomaly
251.12194°
Mean anomaly
259.7273°
Eccentric anomaly
255.40584°
Mean motion
3.2046 °/min
Orbital period
112.34 mins
BSTAR
0.00021062
Loading maneuver chart data...
Computing Atmospheric mass density...

Documentation

Showing up to 5 results
|